1st Responders/1st Detectors/Storm Spotters Weather Summary for Hopkins County, KY

Forecast Maps


Reg. NEXRAD Animation


National Fire Danger: Day 1 & 2 Map

Current NWS Watch/Warnings

SPC Convective Day 1 Outlook


Day 2 Outlook

(Click images to enlarge|Page will refresh every 5 minutes)
UK Ag. Weather Center Desktop Severe Weather Service[HERE]
Hopkins County, KY Hazardous Weather Outlook Webcast
(9 AM to 9 PM Mon-Fri)
[Fast]
[Dial-up]


UKAWC 1st Detectors/1st Responders Precision Weather Forecast For HOPKINS County, Kentucky
(based on the NWS County Digital Forecast)

ISSUED AT 06:00 UTC ON THURSDAY DEC 01 2022
DAY THURSDAY
CDT 3HR 2A 3A 4A 5A 6A 7A 8A 9A 10A 11A NOON 1P 2P 3P 4P 5P 6P
MAX/MIN -- -- -- -- -- 22° -- -- -- -- -- -- -- -- -- -- 45°
TEMP 27° 25° 25° 23° 22° 22° 23° 27° 31° 36° 40° 40° 43° 43° 45° 43° 40°
SKY COVER 10% 16% 21% 26% 37% 52% 53% 47% 54% 52% 32% 23% 27% 23% 11% 15% 17%
Clouds
DEW PT 16° 18° 16° 16° 16° 16° 16° 16° 18° 16° 16° 16° 16° 16° 16° 18° 18°
RH 65% 71% 70% 73% 77% 76% 73% 65% 55% 45% 38% 37% 31% 31% 30% 36% 42%
POP 12HR -- -- -- -- -- 0% -- -- -- -- -- -- -- -- -- -- --
RAIN/SNOW (liq.equ) -- -- -- -- -- 0.00in -- -- -- -- -- 0.00in -- -- -- -- --
SNOWFALL -- -- -- -- -- 0in -- -- -- -- -- 0in -- -- -- -- --
WIND SPEED(MPH) 0 0 0 0 0 0 0 1 2 2 2 2 2 2 5 2 2
WIND Gust(MPH) 5 5 5 2 1 1 1 2 6 6 6 6 7 6 7 6 5
WIND DIR NW NW NW N N N NE NE E E E E SE SE SE SE SE
DEW -- Freeze Freeze Freeze Freeze Freeze Freeze -- -- -- -- -- -- -- -- -- --
HeatIndex 27 25 25 23 22 22 23 27 28 33 37 38 42 42 45 41 37
Snow -- -- -- -- -- -- -- -- -- -- -- -- -- -- -- -- --
Rain -- -- -- -- -- -- -- -- -- -- -- -- -- -- -- -- --
Freezing Rain -- -- -- -- -- -- -- -- -- -- -- -- -- -- -- -- --
WIND CHILL -- -- -- -- -- -- -- -- -- -- -- -- -- -- 43° -- --
SPRAY COND
DRY COND
LIVESTOCK COLDSTRESS



DAY FRIDAY SATURDAY SUNDAY MONDAY TUESDAY WEDNESDAY
CDT 6HR 7P 8P 9P 10P 11P MIDN 1A 2A 3A 4A 5A 6A 7A 8A 9A 10A 11A NOON 1P 4P 7P 10P 1A 4A 7A 10A 1P 4P 7P 1A 7A 1P 7P 1A 7A 1P 7P 1A 7A 1P 7P 1A 7A 1P 7P
MAX/MIN -- -- -- -- -- -- -- -- -- -- -- -- 31° -- -- -- -- -- -- 56° -- -- -- -- 40° -- -- 47° -- -- 27° 45° -- -- 36° 56° -- -- 43° 56° -- -- 29° 45° --
TEMP 38° 34° 34° 32° 31° 31° 32° 34° 34° 36° 36° 38° 38° 40° 43° 45° 47° 49° 52° 54° 52° 52° 54° 52° 47° 43° 45° 43° 36° 31° 29° 43° 40° 40° 40° 50° 50° 50° 49° 52° 47° 40° 34° 43° 38°
SKY COVER 35% 26% 35% 37% 44% 52% 59% 60% 62% 63% 59% 56% 63% 68% 74% 79% 77% 76% 74% 75% 80% 86% 94% 90% 81% 57% 39% 42% 49% 71% 83% 79% 90% 85% 92% 90% 88% 93% 91% 85% 82% 76% 71% 55% 54%
Clouds
DEW PT 20° 20° 22° 22° 22° 22° 23° 25° 25° 25° 25° 27° 27° 29° 31° 32° 34° 34° 34° 36° 41° 47° 50° 52° 45° 36° 27° 23° 23° 22° 22° 27° 32° 36° 38° 45° 47° 47° 45° 47° 40° 36° 31° 31° 29°
RH 48% 58% 61% 63% 66% 68% 69% 69% 66% 66% 63% 63% 64% 64% 64% 62% 58% 54% 49% 50% 68% 82% 89% 96% 89% 76% 48% 44% 61% 69% 72% 52% 73% 88% 96% 79% 86% 89% 89% 82% 79% 85% 88% 65% 69%
POP 12HR 1% -- -- -- -- -- -- -- -- -- -- -- 6% -- -- -- -- -- -- -- 15% -- -- -- 71% -- -- -- 15% -- 5% -- 43% -- 54% -- 49% -- 58% -- 44% -- 41% -- 20%
RAIN/SNOW (liq.equ) 0.00in -- -- -- -- -- 0.00in -- -- -- -- -- 0.00in -- -- -- -- -- 0.00in -- 0.01in -- 0.03in -- 0.03in -- 0.00in -- 0.00in -- -- -- -- -- -- -- -- -- -- -- -- -- -- -- --
SNOWFALL 0in -- -- -- -- -- 0in -- -- -- -- -- 0in -- -- -- -- -- 0in -- 0in -- 0in -- 0in -- 0in -- 0in -- -- -- -- -- -- -- -- -- -- -- -- -- -- -- --
WIND SPEED(MPH) 2 1 2 2 2 5 5 5 6 6 7 7 7 7 8 9 10 13 14 14 14 14 10 9 8 9 9 7 5 1 1 1 1 1 1 6 6 6 5 7 6 6 6 7 6
WIND DIR SE SE SE SE S S S S S S S S S S S S S S S S S S SW SW W NW NW N N NE E S S SW S S SW SW W W NW N N N N
HeatIndex 35 34 31 29 28 27 28 29 29 31 31 32 34 35 37 39 47 49 52 54 52 52 54 52 47 38 45 39 32 31 29 43 40 40 40 50 50 50 49 52 47 35 28 38 33
Snow -- -- -- -- -- -- -- -- -- -- -- -- -- -- -- -- -- -- -- -- -- -- -- -- -- -- -- -- -- -- Slight Chance -- -- -- -- -- -- -- -- -- -- -- -- -- --
Rain -- -- -- -- -- -- -- -- -- -- -- -- -- -- -- -- -- -- Slight Chance Slight Chance Chance Chance Likely Likely Slight Chance -- -- -- -- -- Slight Chance Chance Chance Chance Chance Chance Likely Likely Chance Chance Chance Chance Slight Chance Slight Chance Slight Chance
Freezing Rain -- -- -- -- -- -- -- -- -- -- -- -- -- -- -- -- -- -- -- -- -- -- -- -- -- -- -- -- -- -- Slight Chance -- -- -- -- -- -- -- -- -- -- -- -- -- --
WIND CHILL -- -- -- -- -- 26° 28° 30° 29° 31° 30° 33° 33° 35° 38° 40° -- -- -- -- -- -- -- -- -- 38° 40° 39° 32° -- -- -- -- -- -- -- -- -- -- -- -- 36° 29° 39° 34°
SPRAY COND
DRY COND
LIVESTOCK COLDSTRESS

Click on individual weather variable above in left-hand column (ie., TEMP, RH, QPF 12HR) to view state forecast maps






NWS 48 Hr. Forecast Maps,

Regional Hourly Observations For HOPKINS County, Kentucky
Issued at 200 AM EST THU DEC 01 2022
WESTERN AND SOUTH CENTRAL KENTUCKY
  
CITY           SKY/WX    TMP DP  RH WIND       PRES   REMARKS
PADUCAH        CLEAR     24  20  84 CALM      30.49R                  
HENDERSON      CLEAR     30  17  58 NW6       30.50R WCI  24          
OWENSBORO      CLEAR     26  18  71 NW6       30.49R WCI  19          
HOPKINSVILLE   CLEAR     27  23  86 CALM      30.47R                  
BOWLING GREEN  CLEAR     30  18  60 CALM      30.48R                  
GLASGOW        NOT AVBL                                               


Current NOWCAST not available:
Nowcasts are not issued routinely during fair weather. Only when
precipitation or other significant weather is occuring in this county will these
forecasts be issued. Currently, there is no short term forecast in effect.


Fire Weather Forecast For HOPKINS County, KY
Provided by the National Weather Service:

Issued at: Thu Dec 1 01:05:01 EST 2022

Precip Type           None         None         None         Rain         
Chance Precip (%)     0            0            0            20           
High Temperature(F)                42-46                     54-58        
Minimum RH(%)                      30-35                     46-51        
Low Temperature(F)    20-24                     29-33                     
Maximum RH(%)         73-78                     68-73                     
Temp (24h Trend)      21 (-11)     45 (+3)      30           57           
RH % (24h Trend)      76 (-23)     33 (-6)      71           49           
20FTWND-AM(MPH)                    Lgt/Var                   S 6-10 G28   
20FTWND-PM(MPH)       Lgt/Var      Lgt/Var      Lgt/Var      S 9-13 G31   
Precip Amount         0.00         0.00         0.00         0.01         
Precip Duration                                              1            
Precip Begin                                                 12 PM        
Precip End                                                   Continuing   
Mixing Hgt(M-AGL/MSL)              620                       470          
1700'Mix Hgt Temp                  44                        59           
Mixing Hgt(FT-AGL/MSL)             2030                      1550         
Transport Wind (KTS)               SE  3                     S 19         
Transport Wind (M/S)               SE  2                     S 10         
Vent Rate (m/s-m)                  1240                      4700         
Dispersion Index                   Poor                      Fair         
LAL                   1            1            1            1            
Haines Index          4            4            4            4            
Stability(DSI)                     STBL                      STBL         

Remarks...None.

.FORECAST FOR DAYS 3 THROUGH 7...
.SATURDAY...Rain. Lows in the lower 40s. Highs in the upper 40s.
West winds around 10 mph. 
.SUNDAY...Mostly cloudy with a chance of rain. Lows in the upper
20s. Highs in the mid 40s. North winds around 5 mph. 
.MONDAY...Cloudy with rain likely. Lows in the mid 30s. Highs in
the mid 50s. South winds 5 to 10 mph. 
.TUESDAY...Cloudy with rain likely. Lows in the mid 40s. Highs in
the mid 50s. West winds 5 to 10 mph. 
.WEDNESDAY...Mostly cloudy. A chance of rain and freezing rain.
Lows in the lower 30s. Highs in the mid 40s. North winds 5 to
10 mph. 

SPC's Fire Weather Web Tool (Excellent!), SPC's Fire Weather Outlooks, NWS Fire Weather WEB, Fire Danger Class Map,
Keetch-Byram Drought Index, ROMAN Web, Haines Index ,
WFAS's 10-hr Dead Fuel Moist., WFAS's 100-hr Dead Fuel Moist., Probablity of Ignition, Visual blackness Map, Palmer Drought Index, HPC's Rainfall Forecast Maps


Hazardous Weather Outlook For HOPKINS County, Kentucky
148 PM CST Wed Nov 30 2022 /248 PM EST Wed Nov 30 2022/

 DAY ONE  This afternoon and tonight.

No hazardous weather is expected at this time.

 DAYS TWO THROUGH SEVEN  Thursday through Tuesday.

Wind gusts from the south of 30 to 35 mph, with localized higher 
gusts up to 40 mph, are expected Friday afternoon and Friday 
evening. 

Light accumulations of freezing rain or snow will be possible 
Sunday morning, mainly across southeast Missouri. Minor travel
impacts cannot be ruled out. 

Locally heavy rainfall is possible Monday and Tuesday.

 SPOTTER INFORMATION STATEMENT  

Spotter activation is not expected at this time.

Latest HOPKINS County, Kentucky Watches, Warnings and Advisories.
Additional Drought Info.: UKAWC Drought Page, Kentucky Drought Watch


7-Day Forecast For HOPKINS County, KY

TONIGHT
Mostly clear. Lows in the lower 20s. West winds around 5 mph, becoming northwest around 5 mph after midnight.

THURSDAY
Mostly sunny. Highs in the mid 40s. Northeast winds around 5 mph, becoming southeast around 5 mph in the afternoon.

THURSDAY NIGHT
Partly cloudy in the evening, then becoming mostly cloudy. Lows in the lower 30s. South winds around 5 mph.

FRIDAY
Mostly cloudy. A slight chance of rain in the afternoon. Highs in the upper 50s. South winds 10 to 15 mph with gusts up to 30 mph. Chance of rain 20 percent.

FRIDAY NIGHT
Mostly cloudy. A chance of rain in the evening, then rain likely after midnight. Lows around 40. Southwest winds 10 to 15 mph with gusts up to 30 mph. Chance of rain 70 percent.

SATURDAY
Partly sunny. A slight chance of rain in the morning. Highs in the upper 40s. Chance of rain 20 percent.

SATURDAY NIGHT
Mostly cloudy. Lows in the mid 20s.

SUNDAY
Mostly cloudy. A slight chance of rain, freezing rain and snow in the morning, then a chance of rain in the afternoon. Highs in the mid 40s. Chance of precipitation 40 percent.

SUNDAY NIGHT
Mostly cloudy with a 50 percent chance of rain. Near steady temperature around 40.

MONDAY
Cloudy with a 50 percent chance of rain. Highs in the mid 50s.

MONDAY NIGHT
Rain likely. Near steady temperature in the upper 40s. Chance of rain 60 percent.

TUESDAY
Mostly cloudy with a 50 percent chance of rain. Highs in the mid 50s.

TUESDAY NIGHT
Mostly cloudy with a 40 percent chance of rain. Lows around 30.

WEDNESDAY
Partly sunny with a 20 percent chance of rain. Highs in the mid 40s.

Ag Weather Center, Department of Biosystems & Agricultural Engineering, University of Kentucky